CFG024 EDDM-HEGN

Flight info

Callsign CFG024
Flight time N/A
Altitude 33000
Route VAVOR3E/08R VAVOR M867 RADIZ DCT EVAXI DCT NIPEL DCT VRANA DCT PETAK DCT DIMIS UL604 SALUN N705 BOPIX N710 TAKRI M720 FYM M872 BOPOB BOPOB1A
Aircraft A321/M-SDE3FGIJ1LORVWXYZ/LB1

Departure

Time N/A
Airport Munich Airport (EDDM)

Arrival

Time 2026-04-28 16:33
Airport Hurghada International Airport (HEGN)
Time Latitude Longitude Altitude Speed Heading
2026-04-28 14:58 35.13540 23.77879 33047 ft 488 kts 156°
2026-04-28 14:59 35.10490 23.79706 33051 ft 488 kts 156°
2026-04-28 14:59 35.04391 23.83361 33042 ft 488 kts 156°
2026-04-28 15:00 34.98291 23.87013 33026 ft 488 kts 156°
2026-04-28 15:00 34.92190 23.90658 33027 ft 489 kts 156°
2026-04-28 15:01 34.86079 23.94303 33031 ft 489 kts 156°
2026-04-28 15:01 34.79966 23.97944 33026 ft 489 kts 156°
2026-04-28 15:02 34.73849 24.01575 33018 ft 489 kts 156°
2026-04-28 15:02 34.67731 24.05211 33020 ft 490 kts 156°
2026-04-28 15:03 34.61597 24.08843 33027 ft 490 kts 156°
2026-04-28 15:03 34.55473 24.12465 33030 ft 490 kts 156°
2026-04-28 15:04 34.49349 24.16082 33016 ft 489 kts 156°
2026-04-28 15:04 34.43255 24.19676 33013 ft 490 kts 156°
2026-04-28 15:05 34.37123 24.23286 33015 ft 490 kts 156°
2026-04-28 15:05 34.30981 24.26887 33016 ft 491 kts 156°
2026-04-28 15:06 34.24837 24.30492 33017 ft 491 kts 156°
2026-04-28 15:06 34.18690 24.34095 33000 ft 492 kts 157°
2026-04-28 15:07 34.12515 24.37704 33005 ft 494 kts 157°
2026-04-28 15:07 34.06319 24.41318 33024 ft 495 kts 157°
2026-04-28 15:08 34.00204 24.45179 33025 ft 497 kts 147°
2026-04-28 15:08 33.94907 24.50473 33007 ft 499 kts 139°
2026-04-28 15:09 33.89726 24.56060 32996 ft 501 kts 139°
2026-04-28 15:09 33.84511 24.61656 33005 ft 502 kts 140°
2026-04-28 15:10 33.79289 24.67256 33005 ft 504 kts 140°
2026-04-28 15:10 33.74058 24.72869 33011 ft 505 kts 139°
2026-04-28 15:11 33.68813 24.78478 33018 ft 505 kts 140°
2026-04-28 15:11 33.63543 24.84085 33016 ft 506 kts 140°
2026-04-28 15:12 33.58269 24.89704 33008 ft 507 kts 140°
2026-04-28 15:12 33.52988 24.95321 33013 ft 508 kts 140°
2026-04-28 15:13 33.47730 25.00896 33022 ft 508 kts 140°
2026-04-28 15:13 33.42429 25.06517 33024 ft 508 kts 140°
2026-04-28 15:14 33.37140 25.12122 33030 ft 508 kts 140°
2026-04-28 15:14 33.31840 25.17716 33032 ft 508 kts 140°
2026-04-28 15:15 33.26532 25.23297 33026 ft 508 kts 140°
2026-04-28 15:15 33.21227 25.28875 33028 ft 508 kts 140°
2026-04-28 15:16 33.15919 25.34460 33042 ft 508 kts 140°
2026-04-28 15:16 33.10613 25.40025 33046 ft 507 kts 140°
2026-04-28 15:17 33.05314 25.45571 33044 ft 507 kts 140°
2026-04-28 15:17 33.00045 25.51082 33016 ft 506 kts 140°
2026-04-28 15:18 32.94743 25.56617 33012 ft 507 kts 141°
2026-04-28 15:18 32.89425 25.62148 33013 ft 508 kts 141°
2026-04-28 15:19 32.84102 25.67682 33021 ft 508 kts 141°
2026-04-28 15:19 32.78776 25.73229 33017 ft 508 kts 141°
2026-04-28 15:20 32.73450 25.78763 33017 ft 509 kts 141°
2026-04-28 15:20 32.68140 25.84264 33001 ft 509 kts 141°
2026-04-28 15:21 32.62796 25.89788 33004 ft 509 kts 141°
2026-04-28 15:21 32.57443 25.95301 33014 ft 509 kts 141°
2026-04-28 15:22 32.52092 26.00812 33017 ft 509 kts 141°
2026-04-28 15:22 32.46739 26.06323 33018 ft 510 kts 141°
2026-04-28 15:23 32.41387 26.11832 33028 ft 510 kts 141°
2026-04-28 15:23 32.36062 26.17293 33008 ft 510 kts 142°
2026-04-28 15:24 32.30689 26.22781 33008 ft 510 kts 142°
2026-04-28 15:24 32.25305 26.28271 33026 ft 511 kts 142°
2026-04-28 15:25 32.19916 26.33757 33031 ft 511 kts 142°
2026-04-28 15:25 32.15402 26.38352 33031 ft 511 kts 142°
2026-04-28 15:26 32.10019 26.43831 33035 ft 511 kts 142°
2026-04-28 15:26 32.04668 26.49271 33005 ft 511 kts 142°
2026-04-28 15:27 31.99260 26.54754 33004 ft 513 kts 142°
2026-04-28 15:27 31.93844 26.60237 33014 ft 513 kts 142°
2026-04-28 15:28 31.88422 26.65720 33021 ft 514 kts 142°
2026-04-28 15:28 31.82976 26.71220 33295 ft 517 kts 142°
2026-04-28 15:28 31.80243 26.73971 33526 ft 517 kts 143°
2026-04-28 15:29 31.77510 26.76718 33759 ft 518 kts 143°
2026-04-28 15:29 31.74773 26.79469 33956 ft 518 kts 143°
2026-04-28 15:29 31.72028 26.82228 34078 ft 521 kts 143°
2026-04-28 15:29 31.69303 26.84967 34223 ft 522 kts 143°
2026-04-28 15:30 31.67439 26.86842 34344 ft 523 kts 143°
2026-04-28 15:30 31.57891 26.96410 35019 ft 521 kts 144°
2026-04-28 15:31 31.55098 26.99207 35037 ft 521 kts 144°
2026-04-28 15:31 31.49616 27.04675 35040 ft 520 kts 144°
2026-04-28 15:32 31.44105 27.10159 35038 ft 520 kts 144°
2026-04-28 15:32 31.38569 27.15664 35039 ft 523 kts 144°
2026-04-28 15:33 31.32982 27.21089 35056 ft 518 kts 150°
2026-04-28 15:33 31.26756 27.25069 35058 ft 507 kts 162°
2026-04-28 15:34 31.20353 27.28537 35053 ft 508 kts 162°
2026-04-28 15:34 31.13984 27.32000 35050 ft 508 kts 162°
2026-04-28 15:35 31.07567 27.35478 35015 ft 508 kts 162°
2026-04-28 15:35 30.97926 27.40686 35016 ft 509 kts 162°
2026-04-28 15:36 30.91688 27.44704 35025 ft 520 kts 148°
2026-04-28 15:36 30.86007 27.49980 35034 ft 522 kts 146°
2026-04-28 15:37 30.80328 27.55257 35019 ft 522 kts 147°
2026-04-28 15:37 30.75599 27.59628 35022 ft 522 kts 147°
2026-04-28 15:38 30.68944 27.65763 35029 ft 522 kts 147°
2026-04-28 15:38 30.63290 27.70971 35020 ft 522 kts 147°
2026-04-28 15:39 30.57593 27.76219 35025 ft 522 kts 147°
2026-04-28 15:39 30.51905 27.81463 34997 ft 523 kts 147°
2026-04-28 15:40 30.46204 27.86698 34999 ft 522 kts 147°
2026-04-28 15:40 30.40497 27.91915 35008 ft 523 kts 147°
2026-04-28 15:41 30.34777 27.97143 35012 ft 523 kts 147°
2026-04-28 15:41 30.29076 28.02372 35015 ft 523 kts 147°
2026-04-28 15:42 30.23374 28.07587 35009 ft 523 kts 147°
2026-04-28 15:42 30.17696 28.12759 35012 ft 522 kts 147°
2026-04-28 15:43 30.11985 28.17950 35007 ft 522 kts 147°
2026-04-28 15:43 30.06271 28.23136 35013 ft 522 kts 147°
2026-04-28 15:44 30.00555 28.28311 35012 ft 522 kts 147°
2026-04-28 15:44 29.94847 28.33492 35011 ft 522 kts 147°
2026-04-28 15:45 29.89137 28.38659 35011 ft 522 kts 147°
2026-04-28 15:45 29.84037 28.44700 34987 ft 532 kts 130°
2026-04-28 15:46 29.79548 28.51474 34992 ft 532 kts 131°
2026-04-28 15:46 29.75036 28.58213 34993 ft 532 kts 131°
2026-04-28 15:47 29.70502 28.64943 34999 ft 532 kts 131°
2026-04-28 15:47 29.65970 28.71670 34990 ft 532 kts 131°
2026-04-28 15:48 29.61442 28.78393 34989 ft 532 kts 131°
2026-04-28 15:48 29.56916 28.85123 35007 ft 532 kts 131°
2026-04-28 15:49 29.52422 28.91791 34998 ft 532 kts 131°
2026-04-28 15:49 29.47893 28.98502 34967 ft 531 kts 131°
2026-04-28 15:50 29.43900 29.05651 34983 ft 536 kts 115°
2026-04-28 15:50 29.41858 29.13852 34991 ft 536 kts 95°
2026-04-28 15:51 29.41609 29.22356 34985 ft 534 kts 88°
2026-04-28 15:51 29.41512 29.30888 34997 ft 534 kts 88°
2026-04-28 15:52 29.41403 29.39372 35012 ft 535 kts 88°
2026-04-28 15:52 29.41281 29.47900 35010 ft 535 kts 89°
2026-04-28 15:53 29.41162 29.56426 35003 ft 535 kts 89°
2026-04-28 15:53 29.41048 29.64953 35004 ft 535 kts 89°
2026-04-28 15:54 29.40948 29.72049 35008 ft 535 kts 89°
2026-04-28 15:54 29.40816 29.80583 35007 ft 535 kts 89°
2026-04-28 15:55 29.40676 29.89115 35000 ft 535 kts 89°
2026-04-28 15:55 29.40533 29.97643 35016 ft 535 kts 89°
2026-04-28 15:56 29.40388 30.06182 35003 ft 535 kts 89°
2026-04-28 15:56 29.40228 30.14702 34999 ft 535 kts 89°
2026-04-28 15:57 29.40063 30.23243 34998 ft 535 kts 89°
2026-04-28 15:57 29.39701 30.31757 35007 ft 536 kts 98°
2026-04-28 15:58 29.38874 30.35919 35008 ft 535 kts 109°
2026-04-28 15:58 29.37515 30.39873 34997 ft 532 kts 119°
2026-04-28 15:58 29.33459 30.46802 34994 ft 522 kts 137°
2026-04-28 15:59 29.28454 30.52808 34991 ft 521 kts 139°
2026-04-28 15:59 29.23423 30.58796 35003 ft 522 kts 139°
2026-04-28 16:00 29.18384 30.64791 35004 ft 523 kts 139°
2026-04-28 16:00 29.13332 30.70785 35010 ft 523 kts 139°
2026-04-28 16:01 29.08280 30.76766 35014 ft 523 kts 139°
2026-04-28 16:01 29.03219 30.82756 34985 ft 523 kts 139°
2026-04-28 16:02 28.98169 30.88723 34995 ft 522 kts 139°
2026-04-28 16:02 28.93122 30.94690 35008 ft 522 kts 139°
2026-04-28 16:03 28.88102 31.00614 35007 ft 522 kts 140°
2026-04-28 16:03 28.83042 31.06568 35017 ft 522 kts 140°
2026-04-28 16:04 28.77981 31.12508 35019 ft 522 kts 140°
2026-04-28 16:04 28.72915 31.18445 35020 ft 522 kts 140°
2026-04-28 16:05 28.67872 31.24401 34976 ft 523 kts 139°
2026-04-28 16:05 28.62975 31.30559 34990 ft 525 kts 137°
2026-04-28 16:06 28.58137 31.36793 35001 ft 525 kts 137°
2026-04-28 16:06 28.53267 31.42975 35023 ft 525 kts 138°
2026-04-28 16:07 28.48386 31.49084 35026 ft 525 kts 138°
2026-04-28 16:08 28.41002 31.58283 35034 ft 525 kts 138°
2026-04-28 16:08 28.36094 31.64422 35028 ft 524 kts 138°
2026-04-28 16:09 28.28737 31.73628 34993 ft 524 kts 139°
2026-04-28 16:10 28.21358 31.82809 34990 ft 525 kts 139°
2026-04-28 16:10 28.13991 31.91950 35004 ft 525 kts 139°
2026-04-28 16:11 28.04168 32.04241 35008 ft 530 kts 133°
2026-04-28 16:12 27.98532 32.15156 34990 ft 537 kts 123°
2026-04-28 16:13 27.93200 32.26233 34971 ft 537 kts 123°
2026-04-28 16:14 27.86012 32.41046 34901 ft 538 kts 123°
2026-04-28 16:14 27.82411 32.48470 34763 ft 540 kts 123°
2026-04-28 16:15 27.78763 32.55997 32858 ft 555 kts 122°
2026-04-28 16:15 27.76923 32.59803 32271 ft 549 kts 122°
2026-04-28 16:15 27.75123 32.63528 31449 ft 544 kts 121°
2026-04-28 16:16 27.71507 32.70969 28290 ft 532 kts 120°
2026-04-28 16:16 27.69763 32.74533 27277 ft 515 kts 121°
2026-04-28 16:17 27.66491 32.81215 26368 ft 468 kts 121°
2026-04-28 16:17 27.64915 32.84428 25722 ft 468 kts 121°
2026-04-28 16:17 27.63336 32.87642 25084 ft 468 kts 121°
2026-04-28 16:17 27.61759 32.90852 24445 ft 468 kts 121°
2026-04-28 16:18 27.60183 32.94063 23809 ft 468 kts 121°
2026-04-28 16:18 27.58608 32.97276 23127 ft 467 kts 121°
2026-04-28 16:18 27.57044 33.00469 22513 ft 463 kts 121°
2026-04-28 16:18 27.55511 33.03589 21929 ft 459 kts 121°
2026-04-28 16:19 27.53952 33.06757 21363 ft 454 kts 121°
2026-04-28 16:19 27.52429 33.09852 20808 ft 450 kts 120°
2026-04-28 16:19 27.50939 33.12878 20293 ft 445 kts 120°
2026-04-28 16:19 27.49442 33.15912 19768 ft 440 kts 121°
2026-04-28 16:20 27.47961 33.18905 19281 ft 435 kts 121°
2026-04-28 16:20 27.46499 33.21864 18795 ft 430 kts 120°
2026-04-28 16:20 27.45053 33.24797 18317 ft 426 kts 120°
2026-04-28 16:20 27.43623 33.27701 17803 ft 422 kts 120°
2026-04-28 16:21 27.42208 33.30567 17332 ft 416 kts 120°
2026-04-28 16:21 27.40808 33.33392 16856 ft 411 kts 120°
2026-04-28 16:21 27.39427 33.36189 16407 ft 406 kts 118°
2026-04-28 16:21 27.38336 33.39104 15953 ft 403 kts 108°
2026-04-28 16:22 27.37714 33.42163 15466 ft 400 kts 98°
2026-04-28 16:22 27.37347 33.45255 14985 ft 397 kts 97°
2026-04-28 16:22 27.36979 33.48325 14485 ft 395 kts 97°
2026-04-28 16:22 27.36608 33.51385 13987 ft 394 kts 98°
2026-04-28 16:23 27.36116 33.54407 13444 ft 392 kts 107°
2026-04-28 16:23 27.35012 33.57188 12925 ft 388 kts 123°
2026-04-28 16:23 27.33328 33.59521 12397 ft 383 kts 139°
2026-04-28 16:23 27.31188 33.61264 11877 ft 378 kts 154°
2026-04-28 16:24 27.28756 33.62333 11350 ft 374 kts 166°
2026-04-28 16:24 27.26243 33.63078 10831 ft 373 kts 167°
2026-04-28 16:24 27.23768 33.63808 10638 ft 361 kts 166°
2026-04-28 16:24 27.21415 33.64503 10516 ft 348 kts 166°
2026-04-28 16:25 27.19112 33.65185 10395 ft 336 kts 166°
2026-04-28 16:25 27.16890 33.65844 10278 ft 325 kts 166°
2026-04-28 16:25 27.14745 33.66482 10127 ft 312 kts 165°
2026-04-28 16:25 27.12668 33.67098 9783 ft 305 kts 165°
2026-04-28 16:26 27.10624 33.67706 9380 ft 304 kts 165°
2026-04-28 16:26 27.08587 33.68309 9035 ft 302 kts 166°
2026-04-28 16:26 27.06562 33.68908 8622 ft 301 kts 166°
2026-04-28 16:26 27.04537 33.69506 8204 ft 301 kts 167°
2026-04-28 16:27 27.02507 33.70105 7826 ft 299 kts 167°
2026-04-28 16:27 27.00514 33.70696 7510 ft 294 kts 167°
2026-04-28 16:27 26.97066 33.72875 6582 ft 293 kts 128°
2026-04-28 16:28 26.96163 33.74894 6102 ft 288 kts 102°
2026-04-28 16:28 26.95995 33.76340 5799 ft 277 kts 90°
2026-04-28 16:28 26.96286 33.79077 5325 ft 251 kts 68°
2026-04-28 16:28 26.96989 33.80757 5063 ft 231 kts 54°
2026-04-28 16:29 26.99276 33.83218 3623 ft 229 kts 26°
2026-04-28 16:29 27.02196 33.84095 2727 ft 206 kts
2026-04-28 16:30 27.03605 33.84047 2548 ft 197 kts 353°
2026-04-28 16:30 27.04944 33.83868 2278 ft 192 kts 348°
2026-04-28 16:30 27.06185 33.83542 2035 ft 171 kts 345°
2026-04-28 16:30 27.07274 33.83221 1814 ft 154 kts 346°
2026-04-28 16:31 27.08276 33.82923 1598 ft 147 kts 346°
2026-04-28 16:31 27.09301 33.82623 1352 ft 156 kts 345°
2026-04-28 16:31 27.10359 33.82324 1167 ft 154 kts 347°
2026-04-28 16:31 27.11361 33.82027 971 ft 146 kts 344°
2026-04-28 16:32 27.12339 33.81731 817 ft 143 kts 345°
2026-04-28 16:32 27.14180 33.81195 432 ft 134 kts 344°
2026-04-28 16:32 27.15079 33.80929 256 ft 134 kts 347°
2026-04-28 16:33 27.15984 33.80658 115 ft 134 kts 347°
2026-04-28 16:33 27.16276 33.80570 61 ft 134 kts 346°
2026-04-28 16:33 27.17533 33.80198 55 ft 79 kts 345°
2026-04-28 16:33 27.17918 33.80085 53 ft 38 kts 346°
2026-04-28 16:34 27.18126 33.80026 50 ft 30 kts 346°
2026-04-28 16:34 27.18321 33.79968 50 ft 28 kts 345°
2026-04-28 16:34 27.18423 33.79946 50 ft 8 kts
2026-04-28 16:34 27.18456 33.79985 50 ft 5 kts 70°
2026-04-28 16:35 27.18467 33.80027 49 ft 6 kts 79°
2026-04-28 16:35 27.18464 33.80069 49 ft 7 kts 107°
2026-04-28 16:35 27.18415 33.80106 50 ft 11 kts 165°
2026-04-28 16:35 27.18324 33.80134 52 ft 16 kts 165°
2026-04-28 16:36 27.18220 33.80164 49 ft 14 kts 163°
2026-04-28 16:36 27.18176 33.80234 56 ft 9 kts 81°
2026-04-28 16:36 27.18190 33.80290 55 ft 10 kts 73°
2026-04-28 16:36 27.18204 33.80385 55 ft 14 kts 99°
2026-04-28 16:37 27.18135 33.80438 54 ft 12 kts 166°
2026-04-28 16:37 27.18086 33.80452 54 ft 0 kts 161°
2026-04-28 16:37 27.18082 33.80457 55 ft 1 kts 140°
2026-04-28 16:38 27.18083 33.80486 54 ft 3 kts 73°
2026-04-28 16:38 27.18089 33.80511 54 ft 3 kts 75°
2026-04-28 16:38 27.18094 33.80532 54 ft 2 kts 75°
2026-04-28 16:38 27.18097 33.80546 53 ft 1 kts 75°
2026-04-28 16:39 27.18099 33.80551 54 ft 0 kts 75°